TEVEL-3 (50988 NORAD) Tracking and Keplerian Element Data

This shows tracking and keplerian element data for the satellite.

Feedback or suggestion? Click here.




ElementValue
Catalog50988
NameTEVEL-3
Epoch Orbit13364
Epoch Day160.1876222
Epoch Year2024
RAAN235.6161
Inclination97.3768
Eccentricity0.0001681
Argument of Perigee224.1433
Mean Anonmoly135.9693
Mean Motion15.65406593
Decay Rate0.00207396
L11 50988U 22002E 24160.18762220 .00207396 00000+0 20345-2 0 9999
L22 50988 97.3768 235.6161 0001681 224.1433 135.9693 15.65406593133648



Live tracking and technical data element details for TEVEL-3 (NORAD 50988). TEVEL-3 can be tracked NOW for your location showing map with azimuth and elevation plus other details from your city location.







IsCatalogInMostPopularTable: catalog: 50988, numindb: 108
Update: records affected: 1



GetName: 50988 TEVEL-3

Hit Count: updated at: Thu, 23 Jan 2025 16:43:03 GMT